Data supplied by UK-AIR on 31/3/2022
All Data GMT hour ending 
Status: R =Ratified P=Provisional,P*=As supplied
,,Luton A505 Roadside,,,,,,,,,,,,,,,,,,,,,,,
Date,time,"Nitric oxide",status,unit,"Nitrogen dioxide",status,unit,"Nitrogen oxides as nitrogen dioxide",status,unit
 
01-01-2021,01:00,18.85275,R,ugm-3,32.73102,R,ugm-3,61.63816,R,ugm-3
01-01-2021,02:00,11.22396,R,ugm-3,21.82767,R,ugm-3,39.03750,R,ugm-3
01-01-2021,03:00,7.62879,R,ugm-3,16.65624,R,ugm-3,28.35355,R,ugm-3
01-01-2021,04:00,7.92473,R,ugm-3,19.43847,R,ugm-3,31.58955,R,ugm-3
01-01-2021,05:00,7.26708,R,ugm-3,21.67962,R,ugm-3,32.82232,R,ugm-3
01-01-2021,06:00,10.75264,R,ugm-3,24.81041,R,ugm-3,41.29757,R,ugm-3
01-01-2021,07:00,18.77602,R,ugm-3,28.48262,R,ugm-3,57.27212,R,ugm-3
01-01-2021,08:00,25.48409,R,ugm-3,39.30813,R,ugm-3,78.38319,R,ugm-3
01-01-2021,09:00,14.33686,R,ugm-3,28.09813,R,ugm-3,50.08100,R,ugm-3
01-01-2021,10:00,16.47423,R,ugm-3,27.08093,R,ugm-3,52.34107,R,ugm-3
01-01-2021,11:00,21.60393,R,ugm-3,29.02624,R,ugm-3,62.15181,R,ugm-3
01-01-2021,12:00,30.21920,R,ugm-3,27.27077,R,ugm-3,73.60623,R,ugm-3
01-01-2021,13:00,37.91375,R,ugm-3,31.13899,R,ugm-3,89.27260,R,ugm-3
01-01-2021,14:00,47.61415,R,ugm-3,36.50312,R,ugm-3,109.51046,R,ugm-3
01-01-2021,15:00,54.84834,R,ugm-3,45.64871,R,ugm-3,129.74832,R,ugm-3
01-01-2021,16:00,64.77891,R,ugm-3,47.73209,R,ugm-3,147.05837,R,ugm-3
01-01-2021,17:00,56.68977,R,ugm-3,48.26992,R,ugm-3,135.19302,R,ugm-3
01-01-2021,18:00,37.48627,R,ugm-3,47.10125,R,ugm-3,104.57941,R,ugm-3
01-01-2021,19:00,37.97952,R,ugm-3,34.68508,R,ugm-3,92.91952,R,ugm-3
01-01-2021,20:00,24.62914,R,ugm-3,25.56905,R,ugm-3,63.33320,R,ugm-3
01-01-2021,21:00,13.54767,R,ugm-3,18.57288,R,ugm-3,39.34569,R,ugm-3
01-01-2021,22:00,16.83594,R,ugm-3,20.72206,R,ugm-3,46.53681,R,ugm-3
01-01-2021,23:00,14.36974,R,ugm-3,20.13748,R,ugm-3,42.17077,R,ugm-3
01-01-2021,24:00,12.42966,R,ugm-3,15.71565,R,ugm-3,34.77419,R,ugm-3
02-01-2021,01:00,8.29247,R,ugm-3,11.47682,R,ugm-3,24.19176,R,ugm-3
02-01-2021,02:00,3.11516,R,ugm-3,9.75225,R,ugm-3,14.52876,R,ugm-3
02-01-2021,03:00,2.66544,R,ugm-3,6.34704,R,ugm-3,10.43398,R,ugm-3
02-01-2021,04:00,3.12613,R,ugm-3,8.41619,R,ugm-3,13.20952,R,ugm-3
02-01-2021,05:00,7.33818,R,ugm-3,9.41065,R,ugm-3,20.66236,R,ugm-3
02-01-2021,06:00,14.47891,R,ugm-3,20.92300,R,ugm-3,43.12369,R,ugm-3
02-01-2021,07:00,23.56114,R,ugm-3,24.16435,R,ugm-3,60.29093,R,ugm-3
02-01-2021,08:00,22.67266,R,ugm-3,30.71796,R,ugm-3,65.48222,R,ugm-3
02-01-2021,09:00,30.27409,R,ugm-3,28.72559,R,ugm-3,75.14521,R,ugm-3
02-01-2021,10:00,35.83531,R,ugm-3,36.80036,R,ugm-3,91.74706,R,ugm-3
02-01-2021,11:00,42.44954,R,ugm-3,30.61640,R,ugm-3,95.70478,R,ugm-3
02-01-2021,12:00,69.89366,R,ugm-3,41.57968,R,ugm-3,148.74846,R,ugm-3
02-01-2021,13:00,49.88643,R,ugm-3,34.63299,R,ugm-3,111.12446,R,ugm-3
02-01-2021,14:00,52.15699,R,ugm-3,38.80996,R,ugm-3,118.78289,R,ugm-3
02-01-2021,15:00,63.04908,R,ugm-3,53.56512,R,ugm-3,150.23903,R,ugm-3
02-01-2021,16:00,79.83146,R,ugm-3,55.12533,R,ugm-3,177.53185,R,ugm-3
02-01-2021,17:00,120.89892,R,ugm-3,73.36639,R,ugm-3,258.74214,R,ugm-3
02-01-2021,18:00,98.91730,R,ugm-3,69.49846,R,ugm-3,221.16953,R,ugm-3
02-01-2021,19:00,70.94667,R,ugm-3,56.36134,R,ugm-3,165.14472,R,ugm-3
02-01-2021,20:00,55.54637,R,ugm-3,52.93897,R,ugm-3,138.10889,R,ugm-3
02-01-2021,21:00,35.60496,R,ugm-3,47.02214,R,ugm-3,101.61566,R,ugm-3
02-01-2021,22:00,25.43682,R,ugm-3,26.42825,R,ugm-3,65.43082,R,ugm-3
02-01-2021,23:00,22.27778,R,ugm-3,23.40800,R,ugm-3,57.56679,R,ugm-3
02-01-2021,24:00,22.83719,R,ugm-3,24.55480,R,ugm-3,59.57134,R,ugm-3
03-01-2021,01:00,15.41149,R,ugm-3,19.29854,R,ugm-3,42.92916,R,ugm-3
03-01-2021,02:00,7.02518,R,ugm-3,13.09298,R,ugm-3,23.86477,R,ugm-3
03-01-2021,03:00,8.19970,R,ugm-3,15.09809,R,ugm-3,27.67079,R,ugm-3
03-01-2021,04:00,7.21179,R,ugm-3,10.80098,R,ugm-3,21.85890,R,ugm-3
03-01-2021,05:00,13.92962,R,ugm-3,12.48427,R,ugm-3,33.84272,R,ugm-3
03-01-2021,06:00,19.13264,R,ugm-3,13.30140,R,ugm-3,42.63771,R,ugm-3
03-01-2021,07:00,28.97888,R,ugm-3,15.89690,R,ugm-3,60.33056,R,ugm-3
03-01-2021,08:00,29.04474,R,ugm-3,23.15079,R,ugm-3,67.68544,R,ugm-3
03-01-2021,09:00,27.92510,R,ugm-3,24.09606,R,ugm-3,66.91394,R,ugm-3
03-01-2021,10:00,29.50576,R,ugm-3,24.60407,R,ugm-3,69.84561,R,ugm-3
03-01-2021,11:00,29.43990,R,ugm-3,21.87626,R,ugm-3,67.01681,R,ugm-3
03-01-2021,12:00,42.77677,R,ugm-3,31.10334,R,ugm-3,96.69348,R,ugm-3
03-01-2021,13:00,46.99188,R,ugm-3,31.22365,R,ugm-3,103.27686,R,ugm-3
03-01-2021,14:00,47.84807,R,ugm-3,44.20913,R,ugm-3,117.57516,R,ugm-3
03-01-2021,15:00,57.49672,R,ugm-3,38.87836,R,ugm-3,127.03877,R,ugm-3
03-01-2021,16:00,42.71091,R,ugm-3,34.59889,R,ugm-3,100.08804,R,ugm-3
03-01-2021,17:00,43.53417,R,ugm-3,39.35419,R,ugm-3,106.10566,R,ugm-3
03-01-2021,18:00,58.55050,R,ugm-3,38.13695,R,ugm-3,127.91313,R,ugm-3
03-01-2021,19:00,52.35956,R,ugm-3,43.56641,R,ugm-3,123.84994,R,ugm-3
03-01-2021,20:00,33.58915,R,ugm-3,30.22392,R,ugm-3,81.72656,R,ugm-3
03-01-2021,21:00,26.64081,R,ugm-3,29.81986,R,ugm-3,70.66853,R,ugm-3
03-01-2021,22:00,28.45199,R,ugm-3,22.25952,R,ugm-3,65.88529,R,ugm-3
03-01-2021,23:00,20.84503,R,ugm-3,22.65959,R,ugm-3,54.62153,R,ugm-3
03-01-2021,24:00,18.93506,R,ugm-3,15.35307,R,ugm-3,44.38642,R,ugm-3
04-01-2021,01:00,10.06210,R,ugm-3,11.19700,R,ugm-3,26.62533,R,ugm-3
04-01-2021,02:00,5.14090,R,ugm-3,8.24357,R,ugm-3,16.12617,R,ugm-3
04-01-2021,03:00,4.71249,R,ugm-3,6.05264,R,ugm-3,13.27835,R,ugm-3
04-01-2021,04:00,5.33862,R,ugm-3,5.76164,R,ugm-3,13.94742,R,ugm-3
04-01-2021,05:00,12.68747,R,ugm-3,13.84497,R,ugm-3,33.29882,R,ugm-3
04-01-2021,06:00,36.81013,R,ugm-3,23.28017,R,ugm-3,79.72159,R,ugm-3
04-01-2021,07:00,61.19643,R,ugm-3,32.67140,R,ugm-3,126.50462,R,ugm-3
04-01-2021,08:00,44.91693,R,ugm-3,39.56822,R,ugm-3,108.43989,R,ugm-3
04-01-2021,09:00,45.64193,R,ugm-3,25.79582,R,ugm-3,95.77913,R,ugm-3
04-01-2021,10:00,42.11580,R,ugm-3,32.74647,R,ugm-3,97.32313,R,ugm-3
04-01-2021,11:00,32.13060,R,ugm-3,37.66066,R,ugm-3,86.92690,R,ugm-3
04-01-2021,12:00,39.71013,R,ugm-3,27.32555,R,ugm-3,88.21356,R,ugm-3
04-01-2021,13:00,35.06355,R,ugm-3,31.25928,R,ugm-3,85.02264,R,ugm-3
04-01-2021,14:00,42.08285,R,ugm-3,25.64315,R,ugm-3,90.16928,R,ugm-3
04-01-2021,15:00,36.01923,R,ugm-3,36.07284,R,ugm-3,91.30155,R,ugm-3
04-01-2021,16:00,36.41468,R,ugm-3,38.91474,R,ugm-3,94.74980,R,ugm-3
04-01-2021,17:00,48.60783,R,ugm-3,32.21053,R,ugm-3,106.74149,R,ugm-3
04-01-2021,18:00,67.88619,R,ugm-3,38.05973,R,ugm-3,142.15044,R,ugm-3
04-01-2021,19:00,47.71806,R,ugm-3,33.16309,R,ugm-3,106.32976,R,ugm-3
04-01-2021,20:00,31.40560,R,ugm-3,24.31023,R,ugm-3,72.46481,R,ugm-3
04-01-2021,21:00,26.98970,R,ugm-3,26.80946,R,ugm-3,68.19310,R,ugm-3
04-01-2021,22:00,23.00221,R,ugm-3,26.90195,R,ugm-3,62.17152,R,ugm-3
04-01-2021,23:00,14.13746,R,ugm-3,18.98138,R,ugm-3,40.65852,R,ugm-3
04-01-2021,24:00,8.04089,R,ugm-3,12.00788,R,ugm-3,23.05699,R,ugm-3
05-01-2021,01:00,5.32051,R,ugm-3,7.01741,R,ugm-3,15.17541,R,ugm-3
05-01-2021,02:00,4.66094,R,ugm-3,3.84004,R,ugm-3,10.98673,R,ugm-3
05-01-2021,03:00,3.00103,R,ugm-3,3.12352,R,ugm-3,7.72504,R,ugm-3
05-01-2021,04:00,3.89145,R,ugm-3,2.89124,R,ugm-3,8.85805,R,ugm-3
05-01-2021,05:00,11.41052,R,ugm-3,15.67029,R,ugm-3,33.16618,R,ugm-3
05-01-2021,06:00,39.44214,R,ugm-3,18.36981,R,ugm-3,78.84692,R,ugm-3
05-01-2021,07:00,87.65654,R,ugm-3,45.12513,R,ugm-3,179.52995,R,ugm-3
05-01-2021,08:00,62.42808,R,ugm-3,40.34200,R,ugm-3,136.06372,R,ugm-3
05-01-2021,09:00,68.59503,R,ugm-3,45.20321,R,ugm-3,150.38079,R,ugm-3
05-01-2021,10:00,77.73005,R,ugm-3,47.47047,R,ugm-3,166.65488,R,ugm-3
05-01-2021,11:00,41.91552,R,ugm-3,34.19895,R,ugm-3,98.46852,R,ugm-3
05-01-2021,12:00,38.45279,R,ugm-3,25.08832,R,ugm-3,84.04844,R,ugm-3
05-01-2021,13:00,48.24737,R,ugm-3,36.95331,R,ugm-3,110.93159,R,ugm-3
05-01-2021,14:00,36.01239,R,ugm-3,36.65825,R,ugm-3,91.87649,R,ugm-3
05-01-2021,15:00,32.71456,R,ugm-3,30.95131,R,ugm-3,81.11293,R,ugm-3
05-01-2021,16:00,36.11133,R,ugm-3,27.03050,R,ugm-3,82.40044,R,ugm-3
05-01-2021,17:00,48.74205,R,ugm-3,34.70131,R,ugm-3,109.43808,R,ugm-3
05-01-2021,18:00,69.18864,R,ugm-3,45.94103,R,ugm-3,152.02880,R,ugm-3
05-01-2021,19:00,51.01756,R,ugm-3,48.97984,R,ugm-3,127.20567,R,ugm-3
05-01-2021,20:00,36.14431,R,ugm-3,31.04846,R,ugm-3,86.46896,R,ugm-3
05-01-2021,21:00,38.55173,R,ugm-3,30.65315,R,ugm-3,89.76497,R,ugm-3
05-01-2021,22:00,22.72211,R,ugm-3,18.72021,R,ugm-3,53.56028,R,ugm-3
05-01-2021,23:00,19.88597,R,ugm-3,16.37386,R,ugm-3,46.86525,R,ugm-3
05-01-2021,24:00,10.52010,R,ugm-3,11.06154,R,ugm-3,27.19214,R,ugm-3
06-01-2021,01:00,5.06035,R,ugm-3,7.42627,R,ugm-3,15.18537,R,ugm-3
06-01-2021,02:00,3.38824,R,ugm-3,4.83674,R,ugm-3,10.03196,R,ugm-3
06-01-2021,03:00,7.09550,R,ugm-3,11.53771,R,ugm-3,22.41732,R,ugm-3
06-01-2021,04:00,5.11536,R,ugm-3,4.37013,R,ugm-3,12.21357,R,ugm-3
06-01-2021,05:00,13.36593,R,ugm-3,10.11709,R,ugm-3,30.61123,R,ugm-3
06-01-2021,06:00,45.44417,R,ugm-3,30.55365,R,ugm-3,100.23374,R,ugm-3
06-01-2021,07:00,113.98995,R,ugm-3,44.54679,R,ugm-3,219.32895,R,ugm-3
06-01-2021,08:00,125.47475,R,ugm-3,60.89795,R,ugm-3,253.28989,R,ugm-3
06-01-2021,09:00,93.59453,R,ugm-3,57.67935,R,ugm-3,201.18896,R,ugm-3
06-01-2021,10:00,89.27123,R,ugm-3,54.67145,R,ugm-3,191.55209,R,ugm-3
06-01-2021,11:00,91.54839,R,ugm-3,50.40684,R,ugm-3,190.77908,R,ugm-3
06-01-2021,12:00,103.06619,R,ugm-3,50.47417,R,ugm-3,208.50680,R,ugm-3
06-01-2021,13:00,80.78964,R,ugm-3,44.64065,R,ugm-3,168.51637,R,ugm-3
06-01-2021,14:00,78.21546,R,ugm-3,55.23557,R,ugm-3,175.16426,R,ugm-3
06-01-2021,15:00,81.31767,R,ugm-3,39.55368,R,ugm-3,164.23904,R,ugm-3
06-01-2021,16:00,71.25197,R,ugm-3,40.91874,R,ugm-3,150.17024,R,ugm-3
06-01-2021,17:00,123.26360,R,ugm-3,62.79385,R,ugm-3,251.79540,R,ugm-3
06-01-2021,18:00,152.07461,R,ugm-3,81.59220,R,ugm-3,314.77002,R,ugm-3
06-01-2021,19:00,124.94672,R,ugm-3,65.05731,R,ugm-3,256.63961,R,ugm-3
06-01-2021,20:00,96.23471,R,ugm-3,65.69009,R,ugm-3,213.24793,R,ugm-3
06-01-2021,21:00,76.16931,R,ugm-3,54.61095,R,ugm-3,171.40227,R,ugm-3
06-01-2021,22:00,50.39452,R,ugm-3,44.76213,R,ugm-3,122.03265,R,ugm-3
06-01-2021,23:00,31.71521,R,ugm-3,39.23625,R,ugm-3,87.86557,R,ugm-3
06-01-2021,24:00,20.56044,R,ugm-3,37.22087,R,ugm-3,68.74643,R,ugm-3
07-01-2021,01:00,13.51873,R,ugm-3,27.33279,R,ugm-3,48.06123,R,ugm-3
07-01-2021,02:00,11.40506,R,ugm-3,24.31682,R,ugm-3,41.80433,R,ugm-3
07-01-2021,03:00,10.10603,R,ugm-3,24.46939,R,ugm-3,39.96508,R,ugm-3
07-01-2021,04:00,7.29880,R,ugm-3,20.57446,R,ugm-3,31.76579,R,ugm-3
07-01-2021,05:00,18.52771,R,ugm-3,30.01760,R,ugm-3,58.42637,R,ugm-3
07-01-2021,06:00,49.53934,R,ugm-3,48.26768,R,ugm-3,124.22693,R,ugm-3
07-01-2021,07:00,81.57477,R,ugm-3,65.05106,R,ugm-3,190.13064,R,ugm-3
07-01-2021,08:00,96.70078,R,ugm-3,66.45603,R,ugm-3,214.72850,R,ugm-3
07-01-2021,09:00,93.86053,R,ugm-3,77.92739,R,ugm-3,221.84486,R,ugm-3
07-01-2021,10:00,84.64621,R,ugm-3,49.56391,R,ugm-3,179.35296,R,ugm-3
07-01-2021,11:00,86.49568,R,ugm-3,49.87374,R,ugm-3,182.49860,R,ugm-3
07-01-2021,12:00,86.33055,R,ugm-3,48.06422,R,ugm-3,180.43588,R,ugm-3
07-01-2021,13:00,60.30589,R,ugm-3,47.02328,R,ugm-3,139.49101,R,ugm-3
07-01-2021,14:00,57.89497,R,ugm-3,54.38128,R,ugm-3,143.15233,R,ugm-3
07-01-2021,15:00,58.58852,R,ugm-3,55.68997,R,ugm-3,145.52445,R,ugm-3
07-01-2021,16:00,50.43104,R,ugm-3,53.19169,R,ugm-3,130.51821,R,ugm-3
07-01-2021,17:00,79.89043,R,ugm-3,61.60024,R,ugm-3,184.09720,R,ugm-3
07-01-2021,18:00,77.57860,R,ugm-3,66.79518,R,ugm-3,185.74737,R,ugm-3
07-01-2021,19:00,61.32970,R,ugm-3,52.41512,R,ugm-3,146.45267,R,ugm-3
07-01-2021,20:00,30.51623,R,ugm-3,42.67931,R,ugm-3,89.47021,R,ugm-3
07-01-2021,21:00,29.65755,R,ugm-3,35.28097,R,ugm-3,80.75524,R,ugm-3
07-01-2021,22:00,41.81120,R,ugm-3,41.60447,R,ugm-3,105.71408,R,ugm-3
07-01-2021,23:00,66.94416,R,ugm-3,46.12695,R,ugm-3,148.77323,R,ugm-3
07-01-2021,24:00,70.90730,R,ugm-3,52.06552,R,ugm-3,160.78853,R,ugm-3
08-01-2021,01:00,17.27421,R,ugm-3,31.99509,R,ugm-3,58.48185,R,ugm-3
08-01-2021,02:00,18.02335,R,ugm-3,34.56175,R,ugm-3,62.19716,R,ugm-3
08-01-2021,03:00,25.67996,R,ugm-3,35.39537,R,ugm-3,74.77076,R,ugm-3
08-01-2021,04:00,31.56289,R,ugm-3,37.67576,R,ugm-3,86.07152,R,ugm-3
08-01-2021,05:00,54.43359,R,ugm-3,44.81798,R,ugm-3,128.28165,R,ugm-3
08-01-2021,06:00,129.22607,R,ugm-3,62.44435,R,ugm-3,260.58822,R,ugm-3
08-01-2021,07:00,226.82314,R,ugm-3,81.63811,R,ugm-3,429.42875,R,ugm-3
08-01-2021,08:00,199.02797,R,ugm-3,76.11246,R,ugm-3,381.28443,R,ugm-3
08-01-2021,09:00,247.90914,R,ugm-3,73.45627,R,ugm-3,453.57831,R,ugm-3
08-01-2021,10:00,181.90800,R,ugm-3,70.78253,R,ugm-3,349.70423,R,ugm-3
08-01-2021,11:00,131.24213,R,ugm-3,68.79620,R,ugm-3,270.03132,R,ugm-3
08-01-2021,12:00,123.70669,R,ugm-3,62.75422,R,ugm-3,252.43517,R,ugm-3
08-01-2021,13:00,121.12878,R,ugm-3,75.47923,R,ugm-3,261.20744,R,ugm-3
08-01-2021,14:00,133.91919,R,ugm-3,67.63272,R,ugm-3,272.97261,R,ugm-3
08-01-2021,15:00,118.84832,R,ugm-3,50.13058,R,ugm-3,232.36213,R,ugm-3
08-01-2021,16:00,140.36396,R,ugm-3,79.52676,R,ugm-3,294.74850,R,ugm-3
08-01-2021,17:00,107.44602,R,ugm-3,77.16016,R,ugm-3,241.90843,R,ugm-3
08-01-2021,18:00,127.50746,R,ugm-3,68.74323,R,ugm-3,264.25194,R,ugm-3
08-01-2021,19:00,99.21654,R,ugm-3,58.81756,R,ugm-3,210.94746,R,ugm-3
08-01-2021,20:00,71.12391,R,ugm-3,50.49709,R,ugm-3,159.55224,R,ugm-3
08-01-2021,21:00,65.47234,R,ugm-3,48.42958,R,ugm-3,148.81910,R,ugm-3
08-01-2021,22:00,46.23715,R,ugm-3,33.80372,R,ugm-3,104.69970,R,ugm-3
08-01-2021,23:00,35.92551,R,ugm-3,31.86373,R,ugm-3,86.94874,R,ugm-3
08-01-2021,24:00,19.46654,R,ugm-3,22.47578,R,ugm-3,52.32405,R,ugm-3
09-01-2021,01:00,12.96503,R,ugm-3,14.13108,R,ugm-3,34.01053,R,ugm-3
09-01-2021,02:00,3.52790,R,ugm-3,10.63203,R,ugm-3,16.04140,R,ugm-3
09-01-2021,03:00,9.72378,R,ugm-3,14.26443,R,ugm-3,29.17401,R,ugm-3
09-01-2021,04:00,12.53507,R,ugm-3,13.98140,R,ugm-3,33.20157,R,ugm-3
09-01-2021,05:00,21.39892,R,ugm-3,25.38189,R,ugm-3,58.19311,R,ugm-3
09-01-2021,06:00,71.80380,R,ugm-3,40.57452,R,ugm-3,150.67214,R,ugm-3
09-01-2021,07:00,84.96728,R,ugm-3,43.62673,R,ugm-3,173.90807,R,ugm-3
09-01-2021,08:00,79.21239,R,ugm-3,51.67624,R,ugm-3,173.13354,R,ugm-3
09-01-2021,09:00,97.80001,R,ugm-3,58.75241,R,ugm-3,208.71034,R,ugm-3
09-01-2021,10:00,110.79812,R,ugm-3,61.69675,R,ugm-3,231.58483,R,ugm-3
09-01-2021,11:00,106.03546,R,ugm-3,60.32465,R,ugm-3,222.91008,R,ugm-3
09-01-2021,12:00,117.94212,R,ugm-3,73.35908,R,ugm-3,254.20114,R,ugm-3
09-01-2021,13:00,99.91675,R,ugm-3,62.89065,R,ugm-3,216.09421,R,ugm-3
09-01-2021,14:00,104.97709,R,ugm-3,57.14537,R,ugm-3,218.10799,R,ugm-3
09-01-2021,15:00,116.42071,R,ugm-3,59.32345,R,ugm-3,237.83272,R,ugm-3
09-01-2021,16:00,112.48490,R,ugm-3,66.08117,R,ugm-3,238.55561,R,ugm-3
09-01-2021,17:00,101.20664,R,ugm-3,59.82851,R,ugm-3,215.00986,R,ugm-3
09-01-2021,18:00,111.75727,R,ugm-3,68.07466,R,ugm-3,239.43341,R,ugm-3
09-01-2021,19:00,68.59561,R,ugm-3,56.85346,R,ugm-3,162.03193,R,ugm-3
09-01-2021,20:00,44.84843,R,ugm-3,40.23572,R,ugm-3,109.00236,R,ugm-3
09-01-2021,21:00,32.28029,R,ugm-3,37.20011,R,ugm-3,86.69586,R,ugm-3
09-01-2021,22:00,21.86196,R,ugm-3,32.00414,R,ugm-3,65.52534,R,ugm-3
09-01-2021,23:00,17.29774,R,ugm-3,25.73221,R,ugm-3,52.25504,R,ugm-3
09-01-2021,24:00,13.89111,R,ugm-3,19.23440,R,ugm-3,40.53380,R,ugm-3
10-01-2021,01:00,9.26744,R,ugm-3,14.93156,R,ugm-3,29.14143,R,ugm-3
10-01-2021,02:00,3.75111,R,ugm-3,10.78253,R,ugm-3,16.53414,R,ugm-3
10-01-2021,03:00,3.70697,R,ugm-3,13.74367,R,ugm-3,19.42762,R,ugm-3
10-01-2021,04:00,6.32172,R,ugm-3,12.83461,R,ugm-3,22.52777,R,ugm-3
10-01-2021,05:00,8.63857,R,ugm-3,11.71059,R,ugm-3,24.95622,R,ugm-3
10-01-2021,06:00,12.44484,R,ugm-3,17.70664,R,ugm-3,36.78847,R,ugm-3
10-01-2021,07:00,16.74758,R,ugm-3,17.82620,R,ugm-3,43.50547,R,ugm-3
10-01-2021,08:00,19.36232,R,ugm-3,25.95925,R,ugm-3,55.64773,R,ugm-3
10-01-2021,09:00,18.76656,R,ugm-3,22.53253,R,ugm-3,51.30752,R,ugm-3
10-01-2021,10:00,22.90381,R,ugm-3,28.95113,R,ugm-3,64.06981,R,ugm-3
10-01-2021,11:00,36.97045,R,ugm-3,33.78553,R,ugm-3,90.47277,R,ugm-3
10-01-2021,12:00,27.62579,R,ugm-3,32.87141,R,ugm-3,75.23035,R,ugm-3
10-01-2021,13:00,31.40999,R,ugm-3,32.70099,R,ugm-3,80.86230,R,ugm-3
10-01-2021,14:00,33.16418,R,ugm-3,26.13607,R,ugm-3,76.98711,R,ugm-3
10-01-2021,15:00,36.40779,R,ugm-3,40.28022,R,ugm-3,96.10471,R,ugm-3
10-01-2021,16:00,30.25156,R,ugm-3,39.43746,R,ugm-3,85.82254,R,ugm-3
10-01-2021,17:00,40.87601,R,ugm-3,48.25809,R,ugm-3,110.93377,R,ugm-3
10-01-2021,18:00,37.20214,R,ugm-3,41.90403,R,ugm-3,98.94652,R,ugm-3
10-01-2021,19:00,29.82129,R,ugm-3,41.69895,R,ugm-3,87.42428,R,ugm-3
10-01-2021,20:00,15.32437,R,ugm-3,22.69523,R,ugm-3,46.19226,R,ugm-3
10-01-2021,21:00,8.93646,R,ugm-3,17.55749,R,ugm-3,31.25987,R,ugm-3
10-01-2021,22:00,5.92454,R,ugm-3,14.11530,R,ugm-3,23.19947,R,ugm-3
10-01-2021,23:00,8.20830,R,ugm-3,15.78050,R,ugm-3,28.36639,R,ugm-3
10-01-2021,24:00,6.22242,R,ugm-3,17.06872,R,ugm-3,26.60964,R,ugm-3
11-01-2021,01:00,2.91326,R,ugm-3,10.88947,R,ugm-3,15.35640,R,ugm-3
11-01-2021,02:00,1.76561,R,ugm-3,6.52038,R,ugm-3,9.22761,R,ugm-3
11-01-2021,03:00,1.92010,R,ugm-3,7.48860,R,ugm-3,10.43271,R,ugm-3
11-01-2021,04:00,4.30368,R,ugm-3,9.87654,R,ugm-3,16.47542,R,ugm-3
11-01-2021,05:00,5.99204,R,ugm-3,16.22270,R,ugm-3,25.41037,R,ugm-3
11-01-2021,06:00,10.79230,R,ugm-3,18.67536,R,ugm-3,35.22332,R,ugm-3
11-01-2021,07:00,20.52523,R,ugm-3,27.09623,R,ugm-3,58.56780,R,ugm-3
11-01-2021,08:00,26.78211,R,ugm-3,29.69118,R,ugm-3,70.75651,R,ugm-3
11-01-2021,09:00,21.91565,R,ugm-3,33.02123,R,ugm-3,66.62475,R,ugm-3
11-01-2021,10:00,20.26039,R,ugm-3,30.49784,R,ugm-3,61.56333,R,ugm-3
11-01-2021,11:00,18.63823,R,ugm-3,23.12052,R,ugm-3,51.69874,R,ugm-3
11-01-2021,12:00,16.22155,R,ugm-3,25.12169,R,ugm-3,49.99438,R,ugm-3
11-01-2021,13:00,16.68502,R,ugm-3,22.91327,R,ugm-3,48.49662,R,ugm-3
11-01-2021,14:00,15.59255,R,ugm-3,26.08614,R,ugm-3,49.99438,R,ugm-3
11-01-2021,15:00,12.84482,R,ugm-3,22.50056,R,ugm-3,42.19567,R,ugm-3
11-01-2021,16:00,10.59367,R,ugm-3,20.16780,R,ugm-3,36.41120,R,ugm-3
11-01-2021,17:00,11.68614,R,ugm-3,18.28612,R,ugm-3,36.20461,R,ugm-3
11-01-2021,18:00,9.03772,R,ugm-3,18.98991,R,ugm-3,32.84755,R,ugm-3
11-01-2021,19:00,10.13019,R,ugm-3,17.83127,R,ugm-3,33.36402,R,ugm-3
11-01-2021,20:00,6.48862,R,ugm-3,9.41858,R,ugm-3,19.36766,R,ugm-3
11-01-2021,21:00,4.23747,R,ugm-3,7.44736,R,ugm-3,13.94472,R,ugm-3
11-01-2021,22:00,3.01257,R,ugm-3,5.65856,R,ugm-3,10.27777,R,ugm-3
11-01-2021,23:00,3.50915,R,ugm-3,5.10374,R,ugm-3,10.48436,R,ugm-3
11-01-2021,24:00,3.01257,R,ugm-3,4.72891,R,ugm-3,9.34812,R,ugm-3
12-01-2021,01:00,1.98675,R,ugm-3,3.35520,R,ugm-3,6.40150,R,ugm-3
12-01-2021,02:00,1.50110,R,ugm-3,5.33885,R,ugm-3,7.64050,R,ugm-3
12-01-2021,03:00,0.92715,R,ugm-3,5.59939,R,ugm-3,7.02100,R,ugm-3
12-01-2021,04:00,1.65562,R,ugm-3,8.50916,R,ugm-3,11.04775,R,ugm-3
12-01-2021,05:00,4.56952,R,ugm-3,8.63588,R,ugm-3,15.64237,R,ugm-3
12-01-2021,06:00,26.32438,R,ugm-3,22.72225,R,ugm-3,63.08573,R,ugm-3
12-01-2021,07:00,62.05268,R,ugm-3,58.54145,R,ugm-3,153.68757,R,ugm-3
12-01-2021,08:00,74.80097,R,ugm-3,62.94835,R,ugm-3,177.64157,R,ugm-3
12-01-2021,09:00,80.49630,R,ugm-3,62.42399,R,ugm-3,185.84994,R,ugm-3
12-01-2021,10:00,65.13214,R,ugm-3,47.16006,R,ugm-3,147.02795,R,ugm-3
12-01-2021,11:00,67.11888,R,ugm-3,53.50951,R,ugm-3,156.42370,R,ugm-3
12-01-2021,12:00,72.08575,R,ugm-3,43.77714,R,ugm-3,154.30707,R,ugm-3
12-01-2021,13:00,80.03273,R,ugm-3,55.54593,R,ugm-3,178.26107,R,ugm-3
12-01-2021,14:00,62.74805,R,ugm-3,63.10237,R,ugm-3,159.31470,R,ugm-3
12-01-2021,15:00,84.03933,R,ugm-3,57.81742,R,ugm-3,186.67594,R,ugm-3
12-01-2021,16:00,81.35723,R,ugm-3,68.17655,R,ugm-3,192.92256,R,ugm-3
12-01-2021,17:00,137.28411,R,ugm-3,93.82991,R,ugm-3,304.32927,R,ugm-3
12-01-2021,18:00,215.72744,R,ugm-3,106.22801,R,ugm-3,437.00548,R,ugm-3
12-01-2021,19:00,159.27076,R,ugm-3,104.30850,R,ugm-3,348.52026,R,ugm-3
12-01-2021,20:00,130.13183,R,ugm-3,100.15034,R,ugm-3,299.68302,R,ugm-3
12-01-2021,21:00,99.40350,R,ugm-3,78.34710,R,ugm-3,230.76367,R,ugm-3
12-01-2021,22:00,64.37055,R,ugm-3,64.64131,R,ugm-3,163.34145,R,ugm-3
12-01-2021,23:00,78.37711,R,ugm-3,63.66001,R,ugm-3,183.83656,R,ugm-3
12-01-2021,24:00,24.93366,R,ugm-3,47.25990,R,ugm-3,85.49097,R,ugm-3
13-01-2021,01:00,40.18517,R,ugm-3,59.27194,R,ugm-3,120.88834,R,ugm-3
13-01-2021,02:00,3.70940,R,ugm-3,33.11770,R,ugm-3,38.80536,R,ugm-3
13-01-2021,03:00,16.99038,R,ugm-3,39.17449,R,ugm-3,65.22603,R,ugm-3
13-01-2021,04:00,24.67413,R,ugm-3,33.17241,R,ugm-3,71.00556,R,ugm-3
13-01-2021,05:00,15.79807,R,ugm-3,20.72274,R,ugm-3,44.94610,R,ugm-3
13-01-2021,06:00,46.59934,R,ugm-3,38.97883,R,ugm-3,110.43015,R,ugm-3
13-01-2021,07:00,186.43047,R,ugm-3,77.53137,R,ugm-3,363.38744,R,ugm-3
13-01-2021,08:00,268.69966,R,ugm-3,96.54592,R,ugm-3,508.54633,R,ugm-3
13-01-2021,09:00,205.04371,R,ugm-3,64.31752,R,ugm-3,378.71350,R,ugm-3
13-01-2021,10:00,221.04050,R,ugm-3,73.58934,R,ugm-3,412.51338,R,ugm-3
13-01-2021,11:00,223.69007,R,ugm-3,68.64947,R,ugm-3,411.63613,R,ugm-3
13-01-2021,12:00,143.67301,R,ugm-3,62.90103,R,ugm-3,283.19658,R,ugm-3
13-01-2021,13:00,91.67517,R,ugm-3,58.56886,R,ugm-3,199.13549,R,ugm-3
13-01-2021,14:00,97.30551,R,ugm-3,61.13361,R,ugm-3,210.33332,R,ugm-3
13-01-2021,15:00,140.72536,R,ugm-3,67.93672,R,ugm-3,283.71261,R,ugm-3
13-01-2021,16:00,118.63456,R,ugm-3,71.20831,R,ugm-3,253.11210,R,ugm-3
13-01-2021,17:00,116.21683,R,ugm-3,81.05619,R,ugm-3,259.25284,R,ugm-3
13-01-2021,18:00,97.76919,R,ugm-3,74.71665,R,ugm-3,224.62731,R,ugm-3
13-01-2021,19:00,111.34824,R,ugm-3,75.82695,R,ugm-3,246.55853,R,ugm-3
13-01-2021,20:00,138.60571,R,ugm-3,77.63718,R,ugm-3,290.16296,R,ugm-3
13-01-2021,21:00,92.99996,R,ugm-3,62.31707,R,ugm-3,204.91502,R,ugm-3
13-01-2021,22:00,78.85787,R,ugm-3,57.68383,R,ugm-3,178.59755,R,ugm-3
13-01-2021,23:00,83.75958,R,ugm-3,58.57926,R,ugm-3,187.00882,R,ugm-3
13-01-2021,24:00,14.50640,R,ugm-3,24.81898,R,ugm-3,47.06182,R,ugm-3
14-01-2021,01:00,10.29141,R,ugm-3,24.24673,R,ugm-3,40.02667,R,ugm-3
14-01-2021,02:00,2.47347,R,ugm-3,19.10926,R,ugm-3,22.90186,R,ugm-3
14-01-2021,03:00,2.98142,R,ugm-3,20.85787,R,ugm-3,25.42932,R,ugm-3
14-01-2021,04:00,8.81175,R,ugm-3,21.71851,R,ugm-3,35.22966,R,ugm-3
14-01-2021,05:00,10.60060,R,ugm-3,25.99063,R,ugm-3,42.24465,R,ugm-3
14-01-2021,06:00,31.07300,R,ugm-3,37.61841,R,ugm-3,85.26301,R,ugm-3
14-01-2021,07:00,40.18288,R,ugm-3,49.07943,R,ugm-3,110.69233,R,ugm-3
14-01-2021,08:00,32.16618,R,ugm-3,52.49964,R,ugm-3,101.82043,R,ugm-3
14-01-2021,09:00,28.68786,R,ugm-3,37.56175,R,ugm-3,81.54919,R,ugm-3
14-01-2021,10:00,17.39160,R,ugm-3,33.68275,R,ugm-3,60.34950,R,ugm-3
14-01-2021,11:00,19.31296,R,ugm-3,24.59859,R,ugm-3,54.21139,R,ugm-3
14-01-2021,12:00,13.01886,R,ugm-3,25.01646,R,ugm-3,44.97843,R,ugm-3
14-01-2021,13:00,25.17642,R,ugm-3,45.52493,R,ugm-3,84.12823,R,ugm-3
14-01-2021,14:00,78.67630,R,ugm-3,67.73765,R,ugm-3,188.37296,R,ugm-3
14-01-2021,15:00,99.94374,R,ugm-3,72.73040,R,ugm-3,225.97534,R,ugm-3
14-01-2021,16:00,66.51874,R,ugm-3,55.74001,R,ugm-3,157.73398,R,ugm-3
14-01-2021,17:00,79.60385,R,ugm-3,61.10577,R,ugm-3,183.16330,R,ugm-3
14-01-2021,18:00,94.84221,R,ugm-3,59.14663,R,ugm-3,204.56932,R,ugm-3
14-01-2021,19:00,66.98252,R,ugm-3,50.18030,R,ugm-3,152.88539,R,ugm-3
14-01-2021,20:00,43.06492,R,ugm-3,38.10961,R,ugm-3,104.14157,R,ugm-3
14-01-2021,21:00,40.58041,R,ugm-3,27.57969,R,ugm-3,89.80212,R,ugm-3
14-01-2021,22:00,38.06276,R,ugm-3,38.81607,R,ugm-3,97.17816,R,ugm-3
14-01-2021,23:00,19.24671,R,ugm-3,29.18771,R,ugm-3,58.69891,R,ugm-3
14-01-2021,24:00,15.50337,R,ugm-3,20.33005,R,ugm-3,44.10156,R,ugm-3
15-01-2021,01:00,5.83160,R,ugm-3,8.86327,R,ugm-3,17.80492,R,ugm-3
15-01-2021,02:00,5.74324,R,ugm-3,8.86126,R,ugm-3,17.66743,R,ugm-3
15-01-2021,03:00,9.27754,R,ugm-3,14.13190,R,ugm-3,28.35726,R,ugm-3
15-01-2021,04:00,8.18412,R,ugm-3,15.91157,R,ugm-3,28.46038,R,ugm-3
15-01-2021,05:00,22.46491,R,ugm-3,24.53740,R,ugm-3,58.98311,R,ugm-3
15-01-2021,06:00,62.72281,R,ugm-3,48.80931,R,ugm-3,144.98295,R,ugm-3
15-01-2021,07:00,125.74384,R,ugm-3,68.64943,R,ugm-3,261.45396,R,ugm-3
15-01-2021,08:00,152.81438,R,ugm-3,67.56383,R,ugm-3,301.87594,R,ugm-3
15-01-2021,09:00,145.16041,R,ugm-3,63.16190,R,ugm-3,285.73809,R,ugm-3
15-01-2021,10:00,117.59285,R,ugm-3,58.82253,R,ugm-3,239.12906,R,ugm-3
15-01-2021,11:00,130.97902,R,ugm-3,69.07788,R,ugm-3,269.90958,R,ugm-3